SCP
0 0 0 0 0 0 0 0 0 0 0 0 -0 -0 0 0 0 0 0 0 0 0 0 0 0 0 0 0 0 -0 -0 -0 -0 -0 -0 -0 -0 -0 -0 -0 -0 -0 -0
0 0 0 0 0 0 0 0 0 0 0 0 0 0 0 0 0 0 0 0 0 0 0 0 0 0 0 -0 -0 -0 -0 0 -0 -0 -0 -0 -0 -0 -0 -0 -0 -0 -0
0 0 0 0 0 0 0 0 0 0 0 0 0 0 0 0 0 0 0 0 0 0 0 0 0 0 0 -0 -0 -0 -0 -0 -0 -0 -0 -0 -0 -0 -0 -0 -0 -0 -0
0 0 0 0 0 0 0 0 0 0 0 0 0 -0 0 0 0 0 0 0 0 0 0 0 0 0 -0 -0 -0 -0 -0 -0 -0 -0 -0 -0 -0 -0 -0 -0 -0 -0 -0
0 0 0 0 0 0 0 0 0 0 0 0 0 0 0 0 0 0 0 0 0 0 0 0 0 0 -0 -0 -0 -0 -0 -0 -0 -0 -0 -0 -0 -0 -0 -0 -0 -0 -0
0 0 0 0 0 0 0 0 0 0 0 0 -0 0 0 0 0 0 0 0 0 0 0 0 0 -0 0 -0 -0 -0 -0 -0 -0 -0 -0 -0 -0 -0 -0 -0 -0 -0 -0
0 0 0 0 0 0 0 0 0 0 0 -0 -0 -0 0 0 0 0 0 0 0 0 0 0 0 0 0 -0 -0 -0 -0 -0 -0 -0 -0 -0 -0 -0 -0 -0 -0 -0 -0
0 0 0 0 0 0 0 -0 0 0 0 0 -0 -0 0 0 0 0 0 0 0 0 0 0 0 0 0 -0 -0 -0 -0 -0 -0 -0 -0 -0 -0 -0 -0 -0 -0 -0 0
0 0 0 0 0 0 0 -0 0 0 0 0 -0 -0 -0 0 0 0 0 0 0 0 0 0 -0 -0 -0 -0 -0 -0 -0 -0 -0 -0 -0 -0 -0 -0 -0 -0 -0 -0 -0
0 0 0 0 0 0 0 -0 -0 -0 0 0 0 -0 -0 -0 0 0 -0 -0 -0 -0 -0 -0 -0 -0 -0 -0 -0 -0 -0 -0 -0 -0 -0 -0 -0 -0 -0 -0 0 -0 0
0 0 0 0 0 0 0 -0 -0 0 -0 0 0 0 -0 -0 -0 0 -0 -0 -0 -0 -0 -0 -0 0 0 0 -0 -0 -0 0 0 0 -0 -0 -0 -0 -0 -0 -0 -0 -0
0 0 0 0 0 0 0 0 -0 0 0 0 0 0 -0 -0 -0 0 -0 -0 -0 -0 -0 -0 -0 -0 0 0 0 -0 -0 0 -0 -0 -0 -0 -0 -0 -0 -0 0 0 0
0 0 0 0 0 0 0 -0 -0 -0 0 0 0 0 0 -0 -0 -0 -0 -0 -0 0 -0 -0 -0 -0 0 0 0 0 0 0 0 0 0 0 0 0 0 0 0 0 0
0 0 0 0 0 0 0 0 0 -0 0 -0 0 0 0 -0 -0 -0 -0 -0 0 0 0 0 -0 0 0 0 0 0 0 0 0 0 0 0 0 0 0 0 0 0 0
0 0 0 0 0 0 0 0 0 -0 0 0 0 0 0 -0 0 -0 -0 -0 0 -0 0 0 0 0 0 0 0 0 0 0 0 0 0 0 0 0 0 0 0 0 0
0 0 0 0 0 0 0 0 0 0 0 0 0 0 -0 -0 0 0 0 0 0 -0 0 0 0 0 0 0 0 0 0 0 0 0 0 0 0 0 0 0 0 0 0
0 0 0 0 0 0 0 0 0 0 0 0 0 0 -0 -0 0 0 0 0 0 0 0 0 0 0 0 0 0 0 0 0 0 0 0 0 0 0 0 0 0 0 0
0 0 0 0 0 0 0 0 0 0 0 0 0 0 -0 -0 -0 0 0 0 0 0 0 0 0 0 0 0 0 0 0 0 0 0 0 0 0 0 0 0 0 0 0
0 0 0 0 0 0 0 0 0 0 0 0 0 0 0 0 0 0 0 0 0 0 0 0 0 0 0 0 0 0 0 0 0 0 0 0 0 0 0 0 0 0 0
0 0 0 0 0 0 0 0 0 0 0 0 0 0 0 0 0 0 0 0 0 0 0 0 0 0 0 0 0 0 0 0 0 0 0 0 0 0 0 0 0 0 0
0 0 0 0 0 0 0 0 0 0 0 0 0 0 0 0 0 0 0 0 0 0 0 0 0 0 0 0 0 0 0 0 0 0 0 0 0 0 0 0 0 0 0
0 0 0 0 0 0 0 0 0 0 0 0 0 0 0 0 0 0 0 0 0 0 0 0 0 0 0 0 0 0 0 0 0 0 0 0 0 0 0 0 0 0 0
0 0 0 0 0 0 0 0 0 0 0 0 0 0 0 0 0 0 0 0 0 0 0 0 0 0 0 0 0 0 0 0 0 0 0 0 0 0 0 0 0 0 0
0 0 0 0 0 0 0 0 0 0 0 0 0 0 0 0 0 0 0 0 0 0 0 0 0 0 0 0 0 0 0 0 0 0 0 0 0 0 0 0 0 0 0
0 0 0 0 0 0 0 0 0 0 0 0 0 0 0 0 0 0 0 0 0 0 0 0 0 0 0 0 0 0 0 0 0 0 0 0 0 0 0 0 0 0 0
0 0 0 0 0 0 0 0 0 0 0 0 0 0 0 0 0 0 0 0 0 0 0 0 0 0 0 0 0 0 0 0 0 0 0 0 0 0 0 0 0 0 0
Wind_Speed_500mb
11 12 15 17 21 24 29 30 27 34 41 39 36 32 34 33 28 25 23 19 17 23 33 35 29 23 18 10 19 24 50 65 64 54 45 43 50 45 40 32 27 29 25
10 12 13 16 18 21 27 29 27 35 37 36 38 36 38 34 30 27 24 19 27 36 46 44 36 21 18 12 34 42 19 35 46 48 44 51 44 39 31 28 33 27 16
8 11 12 15 17 20 24 25 26 34 36 39 36 39 51 35 35 29 36 28 29 35 38 37 27 24 22 20 24 31 22 29 55 48 49 41 35 29 38 43 34 22 20
8 10 12 14 17 19 21 22 25 32 40 43 41 47 65 51 44 35 47 41 39 42 33 31 31 29 33 32 34 47 57 63 54 52 45 36 32 38 46 39 28 19 21
8 11 12 14 18 18 18 20 26 29 42 47 49 50 67 61 51 44 35 44 47 43 38 44 47 51 33 30 45 55 59 66 59 45 41 33 30 42 40 32 19 24 16
9 10 13 16 18 18 16 19 24 35 40 50 52 48 58 64 53 45 39 33 39 45 45 44 40 31 29 38 62 58 57 53 52 47 38 28 38 45 36 26 18 18 16
11 10 15 17 18 18 17 18 21 24 26 33 29 45 48 54 55 49 36 34 33 35 32 36 40 44 56 47 49 57 54 50 49 45 34 29 41 36 32 18 25 19 16
15 12 16 19 20 19 18 17 14 11 8 8 16 21 22 41 51 45 35 34 32 26 29 36 41 53 57 60 56 48 46 44 35 33 27 33 38 37 25 18 20 18 18
19 15 17 19 21 20 18 17 12 8 6 4 11 11 10 16 43 39 42 30 23 29 32 42 58 57 58 58 51 44 40 36 33 23 24 40 41 30 27 25 17 21 26
23 18 19 20 23 21 19 17 13 11 8 10 11 15 23 33 23 32 41 38 34 35 68 54 64 68 57 53 45 41 37 29 22 22 33 37 39 34 26 17 25 19 16
27 23 21 22 24 24 21 17 14 15 14 14 20 39 32 31 34 44 50 48 44 45 48 74 69 57 54 48 42 32 26 22 23 33 38 29 37 26 13 15 22 24 30
31 27 23 23 25 26 24 21 18 18 17 17 25 23 28 40 50 57 64 65 70 68 77 63 56 50 44 39 32 25 21 23 36 42 34 34 26 9 11 15 16 12 18
35 32 26 24 26 27 26 24 21 19 20 17 18 21 30 49 52 72 80 81 75 61 57 50 45 39 34 35 34 27 25 34 30 25 28 23 13 12 20 18 6 8 14
34 33 29 27 27 28 28 28 25 20 19 19 12 22 43 55 62 60 71 74 67 58 49 45 33 35 36 33 28 24 34 26 26 21 17 11 10 18 27 22 3 8 13
40 37 32 28 30 28 28 29 28 25 19 19 18 27 40 56 60 61 63 51 47 47 46 44 45 36 27 22 20 24 34 27 18 14 8 4 6 29 20 13 12 10 17
43 40 36 31 31 29 30 31 30 29 22 20 25 25 32 56 57 59 53 37 25 39 33 46 39 33 32 30 30 29 27 22 17 6 4 4 8 9 9 15 21 23 26
46 43 38 33 31 30 31 32 31 29 25 26 28 31 35 53 52 44 36 28 28 13 32 50 42 38 35 32 29 23 19 15 14 14 13 12 11 8 7 16 22 29 30
46 43 41 35 33 30 31 34 32 31 27 30 31 40 44 51 53 47 28 18 26 9 27 48 47 42 37 32 28 26 22 16 13 10 8 6 7 6 8 12 14 19 20
48 47 44 39 35 32 33 34 37 32 32 33 39 45 46 46 51 42 22 12 12 11 27 39 42 41 37 33 29 25 19 15 11 6 1 5 7 9 8 6 11 17 19
51 50 46 41 37 34 33 33 37 39 37 39 44 48 46 49 48 40 22 17 13 14 26 34 34 37 33 32 29 24 21 16 15 11 8 8 11 12 14 16 17 18 18
52 50 49 46 41 37 35 34 38 42 43 46 47 50 48 52 49 36 22 18 13 17 25 24 27 33 30 29 30 29 28 20 25 22 21 22 22 23 24 26 24 24 21
54 53 52 49 45 40 37 32 34 44 49 49 51 51 51 49 47 39 29 22 13 9 22 26 22 25 31 28 26 32 32 32 30 32 33 29 32 33 33 33 34 31 31
56 56 55 52 47 42 37 30 30 38 46 47 48 50 52 50 46 42 39 31 24 21 20 13 18 21 24 27 28 31 33 37 39 39 38 40 37 34 34 35 30 31 34
59 59 56 53 50 45 40 32 30 36 44 44 43 46 46 46 46 44 39 33 27 25 22 20 18 22 24 24 28 30 30 34 36 40 42 46 42 39 34 33 28 27 32
63 60 57 56 52 49 44 37 36 36 42 46 45 44 44 42 40 38 38 35 32 28 24 25 28 30 26 24 24 28 30 33 35 36 39 45 46 46 44 39 33 35 37
61 60 59 54 52 51 48 41 39 40 42 46 48 46 45 43 42 39 38 37 36 30 28 31 32 26 24 26 24 21 19 28 30 38 33 25 29 30 29 27 28 18 24
Wind_Direction_500mb
65 70 69 72 62 59 52 55 55 63 60 54 56 53 54 53 75 78 84 100 118 114 123 121 120 118 139 150 165 175 194 175 160 145 136 147 144 148 139 143 155 159 132
69 76 75 81 71 70 61 60 66 61 66 57 61 62 66 53 63 84 84 84 99 108 117 124 129 129 109 139 137 123 99 132 157 148 148 149 147 140 141 145 151 149 139
83 91 93 93 84 79 66 63 69 68 71 60 59 66 70 67 72 86 87 82 90 112 125 131 134 127 120 132 137 135 153 148 149 142 143 149 140 141 140 150 152 144 116
104 103 107 105 101 91 78 69 85 79 76 64 58 75 72 69 78 80 94 96 99 103 106 106 108 120 105 108 123 130 136 151 148 142 141 136 135 137 147 154 154 137 104
120 117 115 119 116 108 93 80 89 85 82 68 69 83 86 81 75 68 80 102 107 102 100 98 109 122 107 122 136 138 141 141 135 138 136 135 130 146 150 154 153 120 93
147 133 127 132 127 123 116 102 93 85 90 78 74 77 88 93 85 75 83 88 100 108 109 107 117 124 129 127 128 132 132 134 133 135 132 120 137 148 147 149 136 105 101
167 148 138 143 139 133 138 128 115 97 90 82 78 75 87 96 97 95 93 88 96 101 102 109 114 115 111 121 133 131 129 131 132 134 129 121 142 147 148 148 117 91 125
178 164 150 153 149 143 148 148 138 109 105 103 114 98 75 81 101 97 104 106 86 95 108 114 118 122 120 123 123 124 125 125 126 130 127 131 148 151 150 126 89 87 91
184 177 162 159 160 151 152 154 155 144 90 111 172 144 115 122 90 104 106 116 92 101 114 123 125 123 125 121 124 124 127 128 125 132 136 141 152 156 139 115 68 101 105
188 184 171 165 169 161 158 160 157 146 109 81 131 142 144 141 127 100 108 113 109 95 133 126 125 120 119 122 122 127 131 130 124 134 136 140 149 145 136 104 60 92 58
191 187 177 172 173 169 162 159 152 141 123 90 128 135 135 142 139 126 112 108 101 137 123 128 122 122 124 126 127 131 131 129 132 135 138 153 154 148 141 111 81 48 38
193 189 182 177 176 174 165 159 155 142 130 110 120 136 139 143 139 129 125 126 116 108 121 121 121 123 125 122 122 127 124 122 130 136 135 148 149 143 145 138 112 71 41
195 191 184 181 180 177 171 164 162 156 144 128 123 137 146 143 145 123 124 121 121 122 112 118 122 124 126 122 115 107 108 120 121 133 137 143 149 167 169 154 143 36 22
195 191 186 181 179 179 177 173 168 168 164 159 125 137 160 151 143 143 135 127 121 123 125 122 126 128 125 122 115 111 128 127 138 128 118 111 160 187 178 171 194 347 342
194 192 187 180 180 179 178 179 173 171 166 168 166 146 161 159 149 150 147 151 152 139 130 134 132 133 130 132 135 139 139 135 145 149 127 130 134 178 197 208 283 319 329
194 192 188 181 181 179 179 179 176 173 169 166 165 167 163 171 162 159 161 164 162 161 147 152 148 143 138 136 134 137 138 146 159 182 242 181 167 187 234 253 294 314 318
194 193 189 184 181 181 180 178 178 177 173 167 167 172 166 170 172 169 167 161 152 194 185 161 160 154 151 148 144 146 144 147 138 125 124 130 159 188 235 267 295 307 311
195 193 191 186 183 181 181 180 179 177 177 170 171 168 166 174 177 173 166 158 181 131 185 170 165 161 160 156 155 152 142 135 130 127 117 139 167 202 258 289 321 330 330
195 193 192 190 184 182 181 181 182 182 179 173 171 172 171 173 173 170 172 158 182 158 172 175 169 168 169 168 168 166 159 162 163 151 315 272 284 284 292 329 354 357 0
195 194 192 190 188 184 182 182 185 185 181 176 174 174 178 180 179 181 182 183 185 178 174 182 181 179 182 188 190 191 192 192 204 225 247 302 298 308 308 303 315 336 342
196 195 192 191 190 188 189 187 187 188 186 179 178 179 180 184 186 197 200 188 187 192 187 184 196 197 195 203 217 217 222 237 230 233 254 264 279 288 297 303 308 314 319
195 194 193 195 192 191 194 197 194 193 189 183 183 182 185 189 195 199 193 186 177 190 195 198 201 219 225 224 233 240 246 249 253 258 258 268 274 279 287 294 296 297 300
196 195 195 194 193 195 197 197 189 186 184 185 186 186 188 192 194 194 199 200 196 191 185 213 225 239 247 249 256 267 267 267 271 274 278 277 284 286 282 291 292 289 297
199 198 196 195 194 194 198 197 187 184 183 182 185 190 191 191 192 196 203 212 214 214 214 213 226 231 226 231 249 257 261 264 269 271 274 279 283 281 282 290 285 287 294
199 199 198 196 195 195 198 196 192 184 186 185 185 189 196 200 204 207 214 214 216 220 223 223 230 244 238 246 259 258 266 267 271 276 279 280 285 289 283 278 284 274 293
202 200 199 198 198 198 200 197 195 187 186 188 191 194 200 204 210 210 216 223 226 227 232 238 245 243 242 256 261 247 258 275 275 282 286 282 294 302 301 283 276 274 302
Wind_Speed_850mb
11 12 15 17 21 24 29 30 27 34 41 39 36 32 34 33 28 25 23 19 17 23 33 35 29 23 18 10 19 24 50 65 64 54 45 43 50 45 40 32 27 29 25
10 12 13 16 18 21 27 29 27 35 37 36 38 36 38 34 30 27 24 19 27 36 46 44 36 21 18 12 34 42 19 35 46 48 44 51 44 39 31 28 33 27 16
8 11 12 15 17 20 24 25 26 34 36 39 36 39 51 35 35 29 36 28 29 35 38 37 27 24 22 20 24 31 22 29 55 48 49 41 35 29 38 43 34 22 20
8 10 12 14 17 19 21 22 25 32 40 43 41 47 65 51 44 35 47 41 39 42 33 31 31 29 33 32 34 47 57 63 54 52 45 36 32 38 46 39 28 19 21
8 11 12 14 18 18 18 20 26 29 42 47 49 50 67 61 51 44 35 44 47 43 38 44 47 51 33 30 45 55 59 66 59 45 41 33 30 42 40 32 19 24 16
9 10 13 16 18 18 16 19 24 35 40 50 52 48 58 64 53 45 39 33 39 45 45 44 40 31 29 38 62 58 57 53 52 47 38 28 38 45 36 26 18 18 16
11 10 15 17 18 18 17 18 21 24 26 33 29 45 48 54 55 49 36 34 33 35 32 36 40 44 56 47 49 57 54 50 49 45 34 29 41 36 32 18 25 19 16
15 12 16 19 20 19 18 17 14 11 8 8 16 21 22 41 51 45 35 34 32 26 29 36 41 53 57 60 56 48 46 44 35 33 27 33 38 37 25 18 20 18 18
19 15 17 19 21 20 18 17 12 8 6 4 11 11 10 16 43 39 42 30 23 29 32 42 58 57 58 58 51 44 40 36 33 23 24 40 41 30 27 25 17 21 26
23 18 19 20 23 21 19 17 13 11 8 10 11 15 23 33 23 32 41 38 34 35 68 54 64 68 57 53 45 41 37 29 22 22 33 37 39 34 26 17 25 19 16
27 23 21 22 24 24 21 17 14 15 14 14 20 39 32 31 34 44 50 48 44 45 48 74 69 57 54 48 42 32 26 22 23 33 38 29 37 26 13 15 22 24 30
31 27 23 23 25 26 24 21 18 18 17 17 25 23 28 40 50 57 64 65 70 68 77 63 56 50 44 39 32 25 21 23 36 42 34 34 26 9 11 15 16 12 18
35 32 26 24 26 27 26 24 21 19 20 17 18 21 30 49 52 72 80 81 75 61 57 50 45 39 34 35 34 27 25 34 30 25 28 23 13 12 20 18 6 8 14
34 33 29 27 27 28 28 28 25 20 19 19 12 22 43 55 62 60 71 74 67 58 49 45 33 35 36 33 28 24 34 26 26 21 17 11 10 18 27 22 3 8 13
40 37 32 28 30 28 28 29 28 25 19 19 18 27 40 56 60 61 63 51 47 47 46 44 45 36 27 22 20 24 34 27 18 14 8 4 6 29 20 13 12 10 17
43 40 36 31 31 29 30 31 30 29 22 20 25 25 32 56 57 59 53 37 25 39 33 46 39 33 32 30 30 29 27 22 17 6 4 4 8 9 9 15 21 23 26
46 43 38 33 31 30 31 32 31 29 25 26 28 31 35 53 52 44 36 28 28 13 32 50 42 38 35 32 29 23 19 15 14 14 13 12 11 8 7 16 22 29 30
46 43 41 35 33 30 31 34 32 31 27 30 31 40 44 51 53 47 28 18 26 9 27 48 47 42 37 32 28 26 22 16 13 10 8 6 7 6 8 12 14 19 20
48 47 44 39 35 32 33 34 37 32 32 33 39 45 46 46 51 42 22 12 12 11 27 39 42 41 37 33 29 25 19 15 11 6 1 5 7 9 8 6 11 17 19
51 50 46 41 37 34 33 33 37 39 37 39 44 48 46 49 48 40 22 17 13 14 26 34 34 37 33 32 29 24 21 16 15 11 8 8 11 12 14 16 17 18 18
52 50 49 46 41 37 35 34 38 42 43 46 47 50 48 52 49 36 22 18 13 17 25 24 27 33 30 29 30 29 28 20 25 22 21 22 22 23 24 26 24 24 21
54 53 52 49 45 40 37 32 34 44 49 49 51 51 51 49 47 39 29 22 13 9 22 26 22 25 31 28 26 32 32 32 30 32 33 29 32 33 33 33 34 31 31
56 56 55 52 47 42 37 30 30 38 46 47 48 50 52 50 46 42 39 31 24 21 20 13 18 21 24 27 28 31 33 37 39 39 38 40 37 34 34 35 30 31 34
59 59 56 53 50 45 40 32 30 36 44 44 43 46 46 46 46 44 39 33 27 25 22 20 18 22 24 24 28 30 30 34 36 40 42 46 42 39 34 33 28 27 32
63 60 57 56 52 49 44 37 36 36 42 46 45 44 44 42 40 38 38 35 32 28 24 25 28 30 26 24 24 28 30 33 35 36 39 45 46 46 44 39 33 35 37
61 60 59 54 52 51 48 41 39 40 42 46 48 46 45 43 42 39 38 37 36 30 28 31 32 26 24 26 24 21 19 28 30 38 33 25 29 30 29 27 28 18 24
Wind_Direction_850mb
65 70 69 72 62 59 52 55 55 63 60 54 56 53 54 53 75 78 84 100 118 114 123 121 120 118 139 150 165 175 194 175 160 145 136 147 144 148 139 143 155 159 132
69 76 75 81 71 70 61 60 66 61 66 57 61 62 66 53 63 84 84 84 99 108 117 124 129 129 109 139 137 123 99 132 157 148 148 149 147 140 141 145 151 149 139
83 91 93 93 84 79 66 63 69 68 71 60 59 66 70 67 72 86 87 82 90 112 125 131 134 127 120 132 137 135 153 148 149 142 143 149 140 141 140 150 152 144 116
104 103 107 105 101 91 78 69 85 79 76 64 58 75 72 69 78 80 94 96 99 103 106 106 108 120 105 108 123 130 136 151 148 142 141 136 135 137 147 154 154 137 104
120 117 115 119 116 108 93 80 89 85 82 68 69 83 86 81 75 68 80 102 107 102 100 98 109 122 107 122 136 138 141 141 135 138 136 135 130 146 150 154 153 120 93
147 133 127 132 127 123 116 102 93 85 90 78 74 77 88 93 85 75 83 88 100 108 109 107 117 124 129 127 128 132 132 134 133 135 132 120 137 148 147 149 136 105 101
167 148 138 143 139 133 138 128 115 97 90 82 78 75 87 96 97 95 93 88 96 101 102 109 114 115 111 121 133 131 129 131 132 134 129 121 142 147 148 148 117 91 125
178 164 150 153 149 143 148 148 138 109 105 103 114 98 75 81 101 97 104 106 86 95 108 114 118 122 120 123 123 124 125 125 126 130 127 131 148 151 150 126 89 87 91
184 177 162 159 160 151 152 154 155 144 90 111 172 144 115 122 90 104 106 116 92 101 114 123 125 123 125 121 124 124 127 128 125 132 136 141 152 156 139 115 68 101 105
188 184 171 165 169 161 158 160 157 146 109 81 131 142 144 141 127 100 108 113 109 95 133 126 125 120 119 122 122 127 131 130 124 134 136 140 149 145 136 104 60 92 58
191 187 177 172 173 169 162 159 152 141 123 90 128 135 135 142 139 126 112 108 101 137 123 128 122 122 124 126 127 131 131 129 132 135 138 153 154 148 141 111 81 48 38
193 189 182 177 176 174 165 159 155 142 130 110 120 136 139 143 139 129 125 126 116 108 121 121 121 123 125 122 122 127 124 122 130 136 135 148 149 143 145 138 112 71 41
195 191 184 181 180 177 171 164 162 156 144 128 123 137 146 143 145 123 124 121 121 122 112 118 122 124 126 122 115 107 108 120 121 133 137 143 149 167 169 154 143 36 22
195 191 186 181 179 179 177 173 168 168 164 159 125 137 160 151 143 143 135 127 121 123 125 122 126 128 125 122 115 111 128 127 138 128 118 111 160 187 178 171 194 347 342
194 192 187 180 180 179 178 179 173 171 166 168 166 146 161 159 149 150 147 151 152 139 130 134 132 133 130 132 135 139 139 135 145 149 127 130 134 178 197 208 283 319 329
194 192 188 181 181 179 179 179 176 173 169 166 165 167 163 171 162 159 161 164 162 161 147 152 148 143 138 136 134 137 138 146 159 182 242 181 167 187 234 253 294 314 318
194 193 189 184 181 181 180 178 178 177 173 167 167 172 166 170 172 169 167 161 152 194 185 161 160 154 151 148 144 146 144 147 138 125 124 130 159 188 235 267 295 307 311
195 193 191 186 183 181 181 180 179 177 177 170 171 168 166 174 177 173 166 158 181 131 185 170 165 161 160 156 155 152 142 135 130 127 117 139 167 202 258 289 321 330 330
195 193 192 190 184 182 181 181 182 182 179 173 171 172 171 173 173 170 172 158 182 158 172 175 169 168 169 168 168 166 159 162 163 151 315 272 284 284 292 329 354 357 0
195 194 192 190 188 184 182 182 185 185 181 176 174 174 178 180 179 181 182 183 185 178 174 182 181 179 182 188 190 191 192 192 204 225 247 302 298 308 308 303 315 336 342
196 195 192 191 190 188 189 187 187 188 186 179 178 179 180 184 186 197 200 188 187 192 187 184 196 197 195 203 217 217 222 237 230 233 254 264 279 288 297 303 308 314 319
195 194 193 195 192 191 194 197 194 193 189 183 183 182 185 189 195 199 193 186 177 190 195 198 201 219 225 224 233 240 246 249 253 258 258 268 274 279 287 294 296 297 300
196 195 195 194 193 195 197 197 189 186 184 185 186 186 188 192 194 194 199 200 196 191 185 213 225 239 247 249 256 267 267 267 271 274 278 277 284 286 282 291 292 289 297
199 198 196 195 194 194 198 197 187 184 183 182 185 190 191 191 192 196 203 212 214 214 214 213 226 231 226 231 249 257 261 264 269 271 274 279 283 281 282 290 285 287 294
199 199 198 196 195 195 198 196 192 184 186 185 185 189 196 200 204 207 214 214 216 220 223 223 230 244 238 246 259 258 266 267 271 276 279 280 285 289 283 278 284 274 293
202 200 199 198 198 198 200 197 195 187 186 188 191 194 200 204 210 210 216 223 226 227 232 238 245 243 242 256 261 247 258 275 275 282 286 282 294 302 301 283 276 274 302